Location: Unspecified
(0.0000°N, 0.0000°E)
Time: 08:17:11
(UTC+00:00)

Vanguard 2 - Pass Details

Date: 25 October 2021
Orbit: 554 x 2936 km, 32.9° (Epoch: 06 December)

Event Time Altitude Azimuth Distance (km) Brightness Sun altitude
Rises 23:38:03 0° 260° (W) 6,785 12.4 -77.5°
Enters shadow 23:41:49 - 265° (W) 6,051 12.0 -77.5°
Reaches altitude 10° 23:43:27 10° 268° (W) 5,738 - -77.6°
Maximum altitude 23:57:55 32° 325° (NW) 3,677 - -77.1°
Drops below altitude 10° 00:09:02 10° 24° (NNE) 4,371 - -76.1°
Sets 00:12:33 0° 34° (NE) 5,032 - -75.7°
